Back to catalog

ARIANE 44L DEB

LostHEO
NORAD 34181·DEBRIS·🇫🇷 France

Launched Jul 9, 1992 from Guiana Space Centre

Loading…

Next Passes (next 24 hours)

TLE

StaleSource: Space-Track

Epoch: Oct 23, 2024, 22:42 UTC

1 34181U 92041K   24297.94606704  .00003391  00000-0  86530-2 0  9993
2 34181   6.3241 103.1858 6954366 341.8875   2.2893  2.60228441173831

Track ARIANE 44L DEB in real time with AllMySat

Download on the App Store